Weather History for EGDR - May, 2013

Change the Weather History Date:

Tuesday, May 7, 2013

  Actual Average Record
Temperature  
Mean Temperature 54 °F -  
Max Temperature 61 °F 57 °F 66 °F (2008)
Min Temperature 47 °F 47 °F 37 °F (1997)
Degree Days  
Heating Degree Days 11    
Growing Degree Days 4 (Base 50)    
Moisture  
Dew Point 50 °F    
Average Humidity 89    
Maximum Humidity 100    
Minimum Humidity 66    
Precipitation  
Precipitation 0.16 in - - ()
Sea Level Pressure  
Sea Level Pressure 29.89 in    
Wind  
Wind Speed 12 mph ()    
Max Wind Speed 22 mph    
Max Gust Speed 38 mph    
Visibility 4.2 miles    
Events Fog , Rain    
Averages and records for this station are not official NWS values.
T = Trace of Precipitation, MM = Missing Value Source: Averaged Metar Reports

Daily Weather History Graph

Daily Weather History Graph

Search for Another Location

Airport or City:

Trip Planner

Search our weather history database for the weather conditions in past years. The results will help you decide how hot, cold, wet, or windy it might be!

Date:

Astronomy

May. 07, 2013 Rise Set
Actual Time 5:46 AM BST 8:49 PM BST
Civil Twilight 5:08 AM BST 9:27 PM BST
Nautical Twilight 4:19 AM BST 10:16 PM BST
Astronomical Twilight 3:18 AM BST 11:19 PM BST
Moon 4:28 AM BST (5/7) 6:23 PM BST (5/7)
Length of Visible Light 16h 18m
Length of Day
15h 02m
Waning Crescent, 6% of the Moon is Illuminated
May 7
Waning Crescent
May 10
New
May 18
First Quarter
May 25
Full
May 31
Last Quarter

Hourly Weather History & Observations

Time (BST) Temp. Dew Point Humidity Pressure Visibility Wind Dir Wind Speed Gust Speed Precip Events Conditions
12:50 AM 49 °F 48 °F 97% 30.03 in 0 mi East 12.7 mph - - Fog Partial Fog
12:50 AM 48.2 °F 48.2 °F 100% 30.01 in 0.5 mi East 12.7 mph - N/A Fog Fog
1:50 AM 48.2 °F 48.2 °F 100% 30.01 in 1.9 mi East 11.5 mph - N/A Fog Fog
2:50 AM 48.2 °F 48.2 °F 100% 30.01 in 3.1 mi East 11.5 mph - N/A   Scattered Clouds
3:50 AM 49 °F 48 °F 94% 30.00 in 4 mi East 10.4 mph - -   Mist
3:50 AM 48.2 °F 48.2 °F 100% 29.98 in 4.3 mi East 10.4 mph - N/A   Mostly Cloudy
4:50 AM 48.2 °F 48.2 °F 100% 29.98 in 3.7 mi East 9.2 mph - N/A   Mostly Cloudy
5:50 AM 48.2 °F 48.2 °F 100% 29.98 in 3.1 mi East 10.4 mph - N/A   Mostly Cloudy
6:50 AM 49 °F 48 °F 96% 29.99 in 2 mi East 10.4 mph - -   Mist
6:50 AM 50.0 °F 48.2 °F 94% 29.98 in 2.5 mi East 10.4 mph - N/A   Mostly Cloudy
7:50 AM 51.8 °F 50.0 °F 94% 29.95 in 3.1 mi East 15.0 mph - N/A   Haze
8:50 AM 53.6 °F 51.8 °F 94% 29.95 in 4.3 mi East 16.1 mph - N/A   Haze
9:50 AM 54 °F 51 °F 85% 29.96 in 6 mi East 11.5 mph - -   Haze
9:50 AM 53.6 °F 50.0 °F 88% 29.95 in 6.2 mi East 11.5 mph - N/A   Haze
10:50 AM 57.2 °F 50.0 °F 77% 29.95 in - ESE 13.8 mph - N/A   Clear
11:50 AM 60.8 °F 50.0 °F 68% 29.95 in 6.2 mi SE 15.0 mph 27.6 mph N/A   Partly Cloudy
12:50 PM 59 °F 51 °F 66% 29.95 in 12 mi SSE 16.1 mph - -   Partly Cloudy
12:50 PM 59.0 °F 50.0 °F 72% 29.95 in 6.2 mi SSE 16.1 mph 27.6 mph N/A   Scattered Clouds
1:50 PM 57.2 °F 50.0 °F 77% 29.92 in 6.2 mi SSE 16.1 mph - N/A   Mostly Cloudy
2:50 PM 57.2 °F 50.0 °F 77% 29.89 in 6.2 mi SE 13.8 mph - N/A   Mostly Cloudy
3:50 PM 59 °F 51 °F 68% 29.88 in 9 mi SE 16.1 mph - -   Haze
3:50 PM 59.0 °F 51.8 °F 77% 29.86 in 6.2 mi SE 16.1 mph - N/A   Haze
4:50 PM 57.2 °F 50.0 °F 77% 29.86 in 6.2 mi SE 15.0 mph - N/A   Haze
5:50 PM 55.4 °F 50.0 °F 82% 29.83 in 6.2 mi SE 11.5 mph - N/A   Haze
6:50 PM 55 °F 51 °F 81% 29.81 in 6 mi SE 10.4 mph - -   Haze
6:50 PM 55.4 °F 51.8 °F 88% 29.80 in 6.2 mi SE 10.4 mph - N/A   Haze
7:50 PM 53.6 °F 51.8 °F 94% 29.77 in 2.5 mi ESE 12.7 mph - N/A Rain Light Rain
8:50 PM 53.6 °F 51.8 °F 94% 29.74 in 3.1 mi SE 13.8 mph - N/A Rain Light Rain
9:50 PM 54 °F 53 °F 97% 29.70 in 2 mi SSE 20.7 mph - - Rain Light Rain
9:50 PM 55.4 °F 53.6 °F 94% 29.68 in 2.5 mi SSE 20.7 mph 34.5 mph N/A Rain Light Rain
10:37 PM 55.4 °F 53.6 °F 94% 29.65 in 1.2 mi SSE 21.9 mph 36.8 mph N/A Rain Light Rain
10:50 PM 53.6 °F 53.6 °F 100% 29.65 in 1.9 mi SSE 21.9 mph 38.0 mph N/A Rain Rain
11:50 PM 53.6 °F 53.6 °F 100% 29.62 in 1.2 mi South 20.7 mph 35.7 mph N/A Rain Rain